Time,TemperatureF,DewpointF,PressureIn,WindDirection,WindDirectionDegrees,WindSpeedMPH,WindSpeedGustMPH,Humidity,HourlyPrecipIn,Conditions,Clouds,dailyrainin,SoftwareType,DateUTC
2013-02-12 00:02:00,29.5,26.2,30.11,WSW,251,5.4,7.6,88,0.00,,CLR,0.00,VWS V14.01,2013-02-12 06:02:00,
2013-02-12 00:07:00,29.3,26.1,30.11,WSW,245,2.7,8.1,88,0.00,,CLR,0.00,VWS V14.01,2013-02-12 06:07:00,
2013-02-12 00:12:00,29.3,26.1,30.11,West,275,2.7,6.3,88,0.00,,CLR,0.00,VWS V14.01,2013-02-12 06:12:00,
2013-02-12 00:18:00,29.1,25.9,30.11,West,275,0.0,5.8,88,0.00,,CLR,0.00,VWS V14.01,2013-02-12 06:18:00,
2013-02-12 00:23:00,29.1,25.9,30.11,West,270,3.6,5.8,88,0.00,,CLR,0.00,VWS V14.01,2013-02-12 06:23:00,
2013-02-12 00:28:00,29.1,25.9,30.11,WNW,283,10.5,10.5,88,0.00,,CLR,0.00,VWS V14.01,2013-02-12 06:28:00,
2013-02-12 00:33:00,28.9,25.7,30.11,WSW,255,3.1,5.8,88,0.00,,CLR,0.00,VWS V14.01,2013-02-12 06:33:00,
2013-02-12 00:38:00,28.8,25.5,30.11,West,260,2.7,5.8,88,0.00,,CLR,0.00,VWS V14.01,2013-02-12 06:38:00,
2013-02-12 00:44:00,28.6,25.4,30.11,West,267,2.7,5.8,88,0.00,,CLR,0.00,VWS V14.01,2013-02-12 06:44:00,
2013-02-12 00:49:00,28.6,25.4,30.11,WSW,237,4.0,5.8,88,0.00,,CLR,0.00,VWS V14.01,2013-02-12 06:49:00,
2013-02-12 00:54:00,28.6,25.4,30.11,West,259,3.1,8.1,88,0.00,,CLR,0.00,VWS V14.01,2013-02-12 06:54:00,
2013-02-12 01:00:00,28.6,25.4,30.11,WSW,246,4.0,6.3,88,0.00,,CLR,0.00,VWS V14.01,2013-02-12 07:00:00,
2013-02-12 01:05:00,28.6,25.4,30.11,WNW,289,4.0,5.8,88,0.00,,CLR,0.00,VWS V14.01,2013-02-12 07:05:00,
2013-02-12 01:10:00,28.6,25.4,30.11,West,278,5.8,7.6,88,0.00,,CLR,0.00,VWS V14.01,2013-02-12 07:10:00,
2013-02-12 01:15:00,28.4,26.1,30.11,WNW,282,3.1,3.1,91,0.00,,CLR,0.00,VWS V14.01,2013-02-12 07:15:00,
2013-02-12 01:20:00,28.2,25.9,30.11,West,274,2.7,5.8,91,0.00,,CLR,0.00,VWS V14.01,2013-02-12 07:20:00,
2013-02-12 01:25:00,28.0,25.8,30.11,WNW,290,4.0,4.0,91,0.00,,CLR,0.00,VWS V14.01,2013-02-12 07:25:00,
2013-02-12 01:30:00,28.0,25.8,30.11,SW,234,0.0,3.1,91,0.00,,CLR,0.00,VWS V14.01,2013-02-12 07:30:00,
2013-02-12 01:35:00,27.9,25.6,30.11,West,260,0.0,3.6,91,0.00,,CLR,0.00,VWS V14.01,2013-02-12 07:35:00,
2013-02-12 01:40:00,27.7,25.4,30.11,WSW,252,0.0,0.0,91,0.00,,CLR,0.00,VWS V14.01,2013-02-12 07:40:00,
2013-02-12 01:45:00,27.5,25.2,30.11,WSW,250,0.0,0.0,91,0.00,,CLR,0.00,VWS V14.01,2013-02-12 07:45:00,
2013-02-12 01:51:00,27.1,24.9,30.11,West,269,0.0,0.0,91,0.00,,CLR,0.00,VWS V14.01,2013-02-12 07:51:00,
2013-02-12 01:56:00,27.0,24.7,30.11,West,269,0.0,0.0,91,0.00,,CLR,0.00,VWS V14.01,2013-02-12 07:56:00,
2013-02-12 02:01:00,26.8,24.5,30.11,WSW,240,0.0,0.0,91,0.00,,CLR,0.00,VWS V14.01,2013-02-12 08:01:00,
2013-02-12 02:06:00,26.6,24.3,30.11,WSW,239,0.0,0.0,91,0.00,,CLR,0.00,VWS V14.01,2013-02-12 08:06:00,
2013-02-12 02:11:00,26.4,24.1,30.11,WSW,239,0.0,0.0,91,0.00,,CLR,0.00,VWS V14.01,2013-02-12 08:11:00,
2013-02-12 02:16:00,26.2,24.0,30.14,WSW,239,0.0,0.0,91,0.00,,CLR,0.00,VWS V14.01,2013-02-12 08:16:00,
2013-02-12 02:21:00,26.1,23.8,30.14,WSW,239,0.0,0.0,91,0.00,,CLR,0.00,VWS V14.01,2013-02-12 08:21:00,
2013-02-12 02:26:00,25.9,23.6,30.14,WSW,239,0.0,0.0,91,0.00,,CLR,0.00,VWS V14.01,2013-02-12 08:26:00,
2013-02-12 02:31:00,25.9,23.6,30.11,WSW,241,0.0,0.0,91,0.00,,CLR,0.00,VWS V14.01,2013-02-12 08:31:00,
2013-02-12 02:36:00,25.7,23.4,30.11,SW,229,0.0,0.0,91,0.00,,CLR,0.00,VWS V14.01,2013-02-12 08:36:00,
2013-02-12 02:41:00,25.5,23.3,30.11,SW,229,0.0,0.0,91,0.00,,CLR,0.00,VWS V14.01,2013-02-12 08:41:00,
2013-02-12 02:46:00,25.3,23.1,30.11,SW,229,0.0,0.0,91,0.00,,CLR,0.00,VWS V14.01,2013-02-12 08:46:00,
2013-02-12 02:51:00,25.2,22.9,30.11,West,260,0.0,0.0,91,0.00,,CLR,0.00,VWS V14.01,2013-02-12 08:51:00,
2013-02-12 02:57:00,25.0,22.7,30.11,West,260,0.0,0.0,91,0.00,,CLR,0.00,VWS V14.01,2013-02-12 08:57:00,
2013-02-12 03:02:00,24.8,23.5,30.11,West,260,0.0,0.0,94,0.00,,CLR,0.00,VWS V14.01,2013-02-12 09:02:00,
2013-02-12 03:07:00,24.8,23.5,30.11,West,260,0.0,0.0,94,0.00,,CLR,0.00,VWS V14.01,2013-02-12 09:07:00,
2013-02-12 03:12:00,24.8,23.5,30.11,West,260,0.0,0.0,94,0.00,,CLR,0.00,VWS V14.01,2013-02-12 09:12:00,
2013-02-12 03:17:00,24.4,23.1,30.11,West,260,0.0,0.0,94,0.00,,CLR,0.00,VWS V14.01,2013-02-12 09:17:00,
2013-02-12 03:22:00,24.4,23.1,30.11,West,260,0.0,0.0,94,0.00,,CLR,0.00,VWS V14.01,2013-02-12 09:22:00,
2013-02-12 03:27:00,24.4,23.1,30.11,West,260,0.0,0.0,94,0.00,,CLR,0.00,VWS V14.01,2013-02-12 09:27:00,
2013-02-12 03:32:00,24.4,23.1,30.11,West,260,0.0,0.0,94,0.00,,CLR,0.00,VWS V14.01,2013-02-12 09:32:00,
2013-02-12 03:37:00,24.4,23.1,30.11,West,260,0.0,0.0,94,0.00,,CLR,0.00,VWS V14.01,2013-02-12 09:37:00,
2013-02-12 03:42:00,24.6,23.3,30.11,West,260,0.0,0.0,94,0.00,,CLR,0.00,VWS V14.01,2013-02-12 09:42:00,
2013-02-12 03:48:00,24.8,23.5,30.11,West,260,0.0,0.0,94,0.00,,CLR,0.00,VWS V14.01,2013-02-12 09:48:00,
2013-02-12 03:53:00,25.0,25.0,30.11,West,260,0.0,0.0,100,0.00,,CLR,0.00,VWS V14.01,2013-02-12 09:53:00,
2013-02-12 03:58:00,25.2,25.2,30.11,West,260,0.0,0.0,100,0.00,,CLR,0.00,VWS V14.01,2013-02-12 09:58:00,
2013-02-12 04:03:00,25.2,25.2,30.11,West,281,0.0,3.1,100,0.00,,CLR,0.00,VWS V14.01,2013-02-12 10:03:00,
2013-02-12 04:08:00,25.5,25.5,30.11,West,281,0.0,0.0,100,0.00,,CLR,0.00,VWS V14.01,2013-02-12 10:08:00,
2013-02-12 04:13:00,25.7,25.7,30.11,West,281,0.0,0.0,100,0.00,,CLR,0.00,VWS V14.01,2013-02-12 10:13:00,
2013-02-12 04:18:00,25.7,25.7,30.14,West,281,0.0,0.0,100,0.00,,CLR,0.00,VWS V14.01,2013-02-12 10:18:00,
2013-02-12 04:23:00,26.1,26.1,30.14,NW,312,0.0,0.0,100,0.00,,CLR,0.00,VWS V14.01,2013-02-12 10:23:00,
2013-02-12 04:28:00,26.2,26.2,30.14,WSW,256,0.0,0.0,100,0.00,,CLR,0.00,VWS V14.01,2013-02-12 10:28:00,
2013-02-12 04:33:00,26.6,26.6,30.14,West,265,2.2,4.0,100,0.00,,CLR,0.00,VWS V14.01,2013-02-12 10:33:00,
2013-02-12 04:38:00,26.8,26.3,30.14,NW,320,0.0,4.9,98,0.00,,CLR,0.00,VWS V14.01,2013-02-12 10:38:00,
2013-02-12 04:44:00,27.0,26.5,30.14,SW,226,4.9,4.9,98,0.00,,CLR,0.00,VWS V14.01,2013-02-12 10:44:00,
2013-02-12 04:49:00,27.1,26.6,30.14,NW,305,5.4,5.8,98,0.00,,CLR,0.00,VWS V14.01,2013-02-12 10:49:00,
2013-02-12 04:54:00,27.1,27.1,30.14,WSW,248,4.0,5.8,100,0.00,,CLR,0.00,VWS V14.01,2013-02-12 10:54:00,
2013-02-12 04:59:00,27.1,27.1,30.14,NNW,339,2.7,4.9,100,0.00,,CLR,0.00,VWS V14.01,2013-02-12 10:59:00,
2013-02-12 05:04:00,27.3,27.3,30.14,North,357,0.0,3.1,100,0.00,,CLR,0.00,VWS V14.01,2013-02-12 11:04:00,
2013-02-12 05:09:00,27.3,27.3,30.14,North,0,0.0,0.0,100,0.00,,CLR,0.00,VWS V14.01,2013-02-12 11:09:00,
2013-02-12 05:14:00,27.3,27.3,30.14,WSW,255,4.0,7.2,100,0.00,,CLR,0.00,VWS V14.01,2013-02-12 11:14:00,
2013-02-12 05:19:00,27.3,27.3,30.14,WNW,301,0.0,5.8,100,0.00,,CLR,0.00,VWS V14.01,2013-02-12 11:19:00,
2013-02-12 05:24:00,27.3,27.3,30.14,NW,311,5.8,6.3,100,0.00,,CLR,0.00,VWS V14.01,2013-02-12 11:24:00,
2013-02-12 05:29:00,27.3,27.3,30.14,NW,318,0.0,3.1,100,0.00,,CLR,0.00,VWS V14.01,2013-02-12 11:29:00,
2013-02-12 05:34:00,27.3,27.3,30.14,NW,304,3.1,6.3,100,0.00,,CLR,0.00,VWS V14.01,2013-02-12 11:34:00,
2013-02-12 05:39:00,27.5,27.0,30.14,WNW,292,0.0,4.5,98,0.00,,CLR,0.00,VWS V14.01,2013-02-12 11:39:00,
2013-02-12 05:44:00,27.5,27.0,30.11,West,274,3.6,4.9,98,0.00,,CLR,0.00,VWS V14.01,2013-02-12 11:44:00,
2013-02-12 05:50:00,27.5,27.0,30.11,West,266,3.1,4.9,98,0.00,,CLR,0.00,VWS V14.01,2013-02-12 11:50:00,
2013-02-12 05:55:00,27.5,27.0,30.11,SW,235,2.7,4.9,98,0.00,,CLR,0.00,VWS V14.01,2013-02-12 11:55:00,
2013-02-12 06:00:00,27.7,27.2,30.11,WSW,244,0.0,3.1,98,0.00,,CLR,0.00,VWS V14.01,2013-02-12 12:00:00,
2013-02-12 06:05:00,27.7,27.2,30.11,West,264,0.0,0.0,98,0.00,,CLR,0.00,VWS V14.01,2013-02-12 12:05:00,
2013-02-12 06:10:00,27.7,27.2,30.11,NW,313,4.0,4.0,98,0.00,,CLR,0.00,VWS V14.01,2013-02-12 12:10:00,
2013-02-12 06:15:00,27.9,27.4,30.14,WSW,256,0.0,0.0,98,0.00,,CLR,0.00,VWS V14.01,2013-02-12 12:15:00,
2013-02-12 06:20:00,27.9,27.4,30.14,West,276,0.0,0.0,98,0.00,,CLR,0.00,VWS V14.01,2013-02-12 12:20:00,
2013-02-12 06:25:00,27.9,27.4,30.14,West,276,0.0,0.0,98,0.00,,CLR,0.00,VWS V14.01,2013-02-12 12:25:00,
2013-02-12 06:30:00,27.9,27.4,30.11,West,276,0.0,0.0,98,0.00,,CLR,0.00,VWS V14.01,2013-02-12 12:30:00,
2013-02-12 06:35:00,27.9,27.4,30.11,NW,309,0.0,0.0,98,0.00,,CLR,0.00,VWS V14.01,2013-02-12 12:35:00,
2013-02-12 06:41:00,27.9,27.4,30.11,NNW,338,3.1,3.1,98,0.00,,CLR,0.00,VWS V14.01,2013-02-12 12:41:00,
2013-02-12 06:46:00,27.9,27.4,30.14,NW,304,4.9,5.8,98,0.00,,CLR,0.00,VWS V14.01,2013-02-12 12:46:00,
2013-02-12 06:51:00,27.9,27.4,30.14,NW,308,6.3,6.3,98,0.00,,CLR,0.00,VWS V14.01,2013-02-12 12:51:00,
2013-02-12 06:56:00,27.9,27.4,30.14,NNW,338,5.4,5.4,98,0.00,,CLR,0.00,VWS V14.01,2013-02-12 12:56:00,
2013-02-12 07:01:00,27.9,27.4,30.14,West,273,2.7,3.6,98,0.00,,CLR,0.00,VWS V14.01,2013-02-12 13:01:00,
2013-02-12 07:06:00,27.7,27.2,30.14,NW,322,0.0,0.0,98,0.00,,CLR,0.00,VWS V14.01,2013-02-12 13:06:00,
2013-02-12 07:11:00,27.7,27.2,30.14,North,4,4.9,5.4,98,0.00,,CLR,0.00,VWS V14.01,2013-02-12 13:11:00,
2013-02-12 07:16:00,27.5,27.0,30.14,WNW,285,5.4,5.4,98,0.00,,CLR,0.00,VWS V14.01,2013-02-12 13:16:00,
2013-02-12 07:21:00,27.5,27.0,30.14,NNW,339,0.0,6.3,98,0.00,,,0.00,VWS V14.01,2013-02-12 13:21:00,
2013-02-12 07:26:00,27.5,27.0,30.14,WNW,292,3.1,5.4,98,0.00,,,0.00,VWS V14.01,2013-02-12 13:26:00,
2013-02-12 07:32:00,27.5,27.0,30.14,WNW,291,4.0,4.0,98,0.00,,,0.00,VWS V14.01,2013-02-12 13:32:00,
2013-02-12 07:37:00,27.7,27.2,30.14,NW,309,0.0,3.6,98,0.00,,,0.00,VWS V14.01,2013-02-12 13:37:00,
2013-02-12 07:42:00,27.7,27.2,30.14,West,281,0.0,5.4,98,0.00,,,0.00,VWS V14.01,2013-02-12 13:42:00,
2013-02-12 07:47:00,27.9,27.4,30.14,WNW,286,0.0,0.0,98,0.00,,,0.00,VWS V14.01,2013-02-12 13:47:00,
2013-02-12 07:52:00,27.9,27.4,30.14,WSW,252,0.0,0.0,98,0.00,,,0.00,VWS V14.01,2013-02-12 13:52:00,
2013-02-12 07:57:00,27.9,27.4,30.14,WSW,245,2.7,3.1,98,0.00,,,0.00,VWS V14.01,2013-02-12 13:57:00,
2013-02-12 08:02:00,28.0,27.5,30.14,WNW,303,0.0,3.6,98,0.00,,SCT016,0.00,VWS V14.01,2013-02-12 14:02:00,
2013-02-12 08:07:00,28.0,27.5,30.14,NNW,327,2.2,5.4,98,0.00,,SCT016,0.00,VWS V14.01,2013-02-12 14:07:00,
2013-02-12 08:12:00,28.2,27.7,30.14,WSW,254,0.0,0.0,98,0.00,,SCT016,0.00,VWS V14.01,2013-02-12 14:12:00,
2013-02-12 08:18:00,28.2,27.7,30.14,WNW,291,3.6,4.9,98,0.00,,SCT016,0.00,VWS V14.01,2013-02-12 14:18:00,
2013-02-12 08:23:00,28.4,27.9,30.14,WNW,290,0.0,4.0,98,0.00,,OVC016,0.00,VWS V14.01,2013-02-12 14:23:00,
2013-02-12 08:28:00,28.4,27.9,30.14,NNW,345,5.4,5.4,98,0.00,,OVC016,0.00,VWS V14.01,2013-02-12 14:28:00,
2013-02-12 08:33:00,28.4,27.9,30.11,NNW,341,0.0,2.7,98,0.00,,OVC016,0.00,VWS V14.01,2013-02-12 14:33:00,
2013-02-12 08:38:00,28.4,27.9,30.11,NW,326,4.5,5.4,98,0.00,,SCT016,0.00,VWS V14.01,2013-02-12 14:38:00,
2013-02-12 08:43:00,28.6,28.1,30.11,SW,217,3.1,4.0,98,0.00,,SCT016,0.00,VWS V14.01,2013-02-12 14:43:00,
2013-02-12 08:48:00,28.8,28.3,30.14,NW,319,4.0,4.0,98,0.00,,SCT016,0.00,VWS V14.01,2013-02-12 14:48:00,
2013-02-12 08:53:00,28.9,28.5,30.14,NW,307,2.7,6.7,98,0.00,,SCT016,0.00,VWS V14.01,2013-02-12 14:53:00,
2013-02-12 08:58:00,29.1,28.6,30.14,West,281,0.0,4.9,98,0.00,,SCT016,0.00,VWS V14.01,2013-02-12 14:58:00,
2013-02-12 09:03:00,29.1,28.6,30.14,West,266,4.0,5.4,98,0.00,,SCT016,0.00,VWS V14.01,2013-02-12 15:03:00,
2013-02-12 09:08:00,29.3,28.8,30.14,WNW,289,3.1,5.8,98,0.00,,BKN014,0.00,VWS V14.01,2013-02-12 15:08:00,
2013-02-12 09:13:00,29.3,28.8,30.14,West,277,3.6,6.3,98,0.00,,BKN014,0.00,VWS V14.01,2013-02-12 15:13:00,
2013-02-12 09:19:00,29.3,28.8,30.14,NNW,330,5.4,5.4,98,0.00,,BKN014,0.00,VWS V14.01,2013-02-12 15:19:00,
2013-02-12 09:24:00,29.5,29.0,30.14,WSW,252,2.7,8.1,98,0.00,,OVC012,0.00,VWS V14.01,2013-02-12 15:24:00,
2013-02-12 09:29:00,29.7,29.2,30.14,NW,325,3.6,6.3,98,0.00,,OVC012,0.00,VWS V14.01,2013-02-12 15:29:00,
2013-02-12 09:34:00,29.8,29.3,30.14,NNW,341,4.9,7.6,98,0.00,,OVC012,0.00,VWS V14.01,2013-02-12 15:34:00,
2013-02-12 09:39:00,29.8,29.3,30.14,WNW,288,2.7,6.3,98,0.00,,OVC012,0.00,VWS V14.01,2013-02-12 15:39:00,
2013-02-12 09:44:00,30.0,29.5,30.14,West,274,2.2,6.3,98,0.00,,OVC012,0.00,VWS V14.01,2013-02-12 15:44:00,
2013-02-12 09:49:00,30.2,29.7,30.14,WSW,253,4.0,6.3,98,0.00,,OVC012,0.00,VWS V14.01,2013-02-12 15:49:00,
2013-02-12 09:54:00,30.6,30.1,30.14,SW,233,3.6,4.9,98,0.00,,OVC012,0.00,VWS V14.01,2013-02-12 15:54:00,
2013-02-12 09:59:00,30.7,30.2,30.14,West,261,3.1,6.3,98,0.00,,OVC012,0.00,VWS V14.01,2013-02-12 15:59:00,
2013-02-12 10:05:00,30.9,27.6,30.14,NW,320,4.9,6.7,88,0.00,,OVC012,0.00,VWS V14.01,2013-02-12 16:05:00,
2013-02-12 10:10:00,31.1,27.8,30.14,WSW,246,3.6,5.4,88,0.00,,OVC012,0.00,VWS V14.01,2013-02-12 16:10:00,
2013-02-12 10:15:00,31.8,28.5,30.11,NW,307,3.6,5.8,88,0.00,,OVC012,0.00,VWS V14.01,2013-02-12 16:15:00,
2013-02-12 10:20:00,32.4,29.1,30.11,West,265,0.0,0.0,88,0.00,,OVC012,0.00,VWS V14.01,2013-02-12 16:20:00,
2013-02-12 10:25:00,32.4,29.1,30.11,West,265,5.4,5.8,88,0.00,,OVC012,0.00,VWS V14.01,2013-02-12 16:25:00,
2013-02-12 10:30:00,32.7,29.4,30.11,SW,231,2.7,2.7,88,0.00,,OVC012,0.00,VWS V14.01,2013-02-12 16:30:00,
2013-02-12 10:35:00,33.6,30.3,30.11,West,259,0.0,4.9,88,0.00,,OVC012,0.00,VWS V14.01,2013-02-12 16:35:00,
2013-02-12 10:40:00,33.8,30.5,30.11,West,280,2.7,3.6,88,0.00,,OVC012,0.00,VWS V14.01,2013-02-12 16:40:00,
2013-02-12 10:45:00,34.2,30.8,30.11,WNW,291,4.0,5.4,88,0.00,,OVC012,0.00,VWS V14.01,2013-02-12 16:45:00,
2013-02-12 10:50:00,34.0,30.7,30.11,West,261,5.8,5.8,88,0.00,,OVC012,0.00,VWS V14.01,2013-02-12 16:50:00,
2013-02-12 10:55:00,34.0,30.7,30.11,West,268,0.0,0.0,88,0.00,,OVC012,0.00,VWS V14.01,2013-02-12 16:55:00,
2013-02-12 11:00:00,34.3,31.0,30.09,WSW,245,0.0,5.4,88,0.00,,OVC012,0.00,VWS V14.01,2013-02-12 17:00:00,
2013-02-12 11:06:00,34.5,31.2,30.09,WSW,244,3.6,8.3,88,0.00,,OVC012,0.00,VWS V14.01,2013-02-12 17:06:00,
2013-02-12 11:11:00,34.5,31.2,30.09,NNW,342,9.2,9.2,88,0.00,,OVC012,0.00,VWS V14.01,2013-02-12 17:11:00,
2013-02-12 11:16:00,34.7,31.4,30.09,SW,234,2.7,4.0,88,0.00,,OVC012,0.00,VWS V14.01,2013-02-12 17:16:00,
2013-02-12 11:21:00,35.1,31.7,30.09,West,267,0.0,0.0,88,0.00,,OVC012,0.00,VWS V14.01,2013-02-12 17:21:00,
2013-02-12 11:26:00,35.6,31.2,30.09,NNW,346,4.9,5.8,84,0.00,,OVC012,0.00,VWS V14.01,2013-02-12 17:26:00,
2013-02-12 11:31:00,36.0,31.6,30.09,NW,323,7.6,8.3,84,0.00,,OVC012,0.00,VWS V14.01,2013-02-12 17:31:00,
2013-02-12 11:36:00,35.6,31.2,30.09,NNW,337,5.4,8.1,84,0.00,,OVC012,0.00,VWS V14.01,2013-02-12 17:36:00,
2013-02-12 11:41:00,35.4,32.1,30.09,NNW,328,5.8,5.8,88,0.00,,OVC012,0.00,VWS V14.01,2013-02-12 17:41:00,
2013-02-12 11:46:00,36.0,31.6,30.09,North,4,0.0,4.9,84,0.00,,OVC012,0.00,VWS V14.01,2013-02-12 17:46:00,
2013-02-12 11:51:00,36.1,31.8,30.09,NW,319,3.1,3.6,84,0.00,,OVC012,0.00,VWS V14.01,2013-02-12 17:51:00,
2013-02-12 11:57:00,36.7,32.3,30.09,North,353,2.2,6.7,84,0.00,,OVC012,0.00,VWS V14.01,2013-02-12 17:57:00,
2013-02-12 12:02:00,36.5,32.1,30.09,NNW,334,2.2,4.9,84,0.00,,BKN012,0.00,VWS V14.01,2013-02-12 18:02:00,
2013-02-12 12:07:00,36.5,32.1,30.09,North,350,8.1,8.1,84,0.00,,BKN012,0.00,VWS V14.01,2013-02-12 18:07:00,
2013-02-12 12:12:00,36.5,32.1,30.09,West,265,0.0,5.4,84,0.00,,BKN012,0.00,VWS V14.01,2013-02-12 18:12:00,
2013-02-12 12:17:00,36.9,32.5,30.09,West,270,0.0,5.8,84,0.00,,BKN012,0.00,VWS V14.01,2013-02-12 18:17:00,
2013-02-12 12:22:00,36.9,32.5,30.09,North,353,5.8,6.3,84,0.00,,OVC014,0.00,VWS V14.01,2013-02-12 18:22:00,
2013-02-12 12:27:00,36.7,32.3,30.09,WSW,240,2.7,5.4,84,0.00,,OVC014,0.00,VWS V14.01,2013-02-12 18:27:00,
2013-02-12 12:32:00,37.0,32.7,30.09,NNW,344,5.8,5.8,84,0.00,,OVC014,0.00,VWS V14.01,2013-02-12 18:32:00,
2013-02-12 12:37:00,37.4,33.0,30.09,West,273,3.1,6.3,84,0.00,,OVC014,0.00,VWS V14.01,2013-02-12 18:37:00,
2013-02-12 12:42:00,37.9,33.5,30.09,West,280,3.6,5.8,84,0.00,,OVC014,0.00,VWS V14.01,2013-02-12 18:42:00,
2013-02-12 12:48:00,37.8,33.4,30.06,SW,231,4.9,5.8,84,0.00,,SCT014,0.00,VWS V14.01,2013-02-12 18:48:00,
2013-02-12 12:53:00,37.9,33.5,30.06,SSW,211,5.4,5.8,84,0.00,,SCT014,0.00,VWS V14.01,2013-02-12 18:53:00,
2013-02-12 12:58:00,38.3,33.9,30.06,SW,229,0.0,7.6,84,0.00,,SCT014,0.00,VWS V14.01,2013-02-12 18:58:00,
2013-02-12 13:03:00,38.1,33.7,30.06,NW,313,3.6,8.3,84,0.00,,SCT014,0.00,VWS V14.01,2013-02-12 19:03:00,
2013-02-12 13:08:00,38.1,33.7,30.06,WSW,249,7.6,7.6,84,0.00,,BKN014,0.00,VWS V14.01,2013-02-12 19:08:00,
2013-02-12 13:13:00,38.3,33.9,30.06,WNW,296,3.6,6.7,84,0.00,,BKN014,0.00,VWS V14.01,2013-02-12 19:13:00,
2013-02-12 13:18:00,38.7,34.2,30.09,NW,326,2.7,6.3,84,0.00,,BKN014,0.00,VWS V14.01,2013-02-12 19:18:00,
2013-02-12 13:23:00,39.2,33.7,30.09,NNW,334,7.2,7.2,80,0.00,,BKN014,0.00,VWS V14.01,2013-02-12 19:23:00,
2013-02-12 13:29:00,39.2,33.7,30.09,NNW,341,8.1,11.4,80,0.00,,BKN014,0.00,VWS V14.01,2013-02-12 19:29:00,
2013-02-12 13:34:00,39.2,33.7,30.06,NNW,339,6.3,7.2,80,0.00,,BKN014,0.00,VWS V14.01,2013-02-12 19:34:00,
2013-02-12 13:39:00,39.2,33.7,30.06,WNW,293,3.1,8.1,80,0.00,,BKN014,0.00,VWS V14.01,2013-02-12 19:39:00,
2013-02-12 13:44:00,39.2,33.7,30.06,NNW,327,5.8,8.1,80,0.00,,BKN014,0.00,VWS V14.01,2013-02-12 19:44:00,
2013-02-12 13:49:00,39.2,33.7,30.06,NNE,22,6.3,8.1,80,0.00,,BKN014,0.00,VWS V14.01,2013-02-12 19:49:00,
2013-02-12 13:55:00,39.2,33.7,30.06,North,350,8.1,8.1,80,0.00,,BKN014,0.00,VWS V14.01,2013-02-12 19:55:00,
2013-02-12 14:00:00,39.9,34.4,30.06,NW,320,5.4,8.1,80,0.00,,BKN014,0.00,VWS V14.01,2013-02-12 20:00:00,
2013-02-12 14:05:00,40.6,35.1,30.06,NNW,343,0.0,0.0,80,0.00,,SCT018,0.00,VWS V14.01,2013-02-12 20:05:00,
2013-02-12 14:10:00,40.8,35.3,30.06,NNW,327,0.0,6.3,80,0.00,,SCT018,0.00,VWS V14.01,2013-02-12 20:10:00,
2013-02-12 14:15:00,41.0,35.5,30.06,WNW,285,2.7,8.1,80,0.00,,SCT018,0.00,VWS V14.01,2013-02-12 20:15:00,
2013-02-12 14:20:00,40.8,35.3,30.06,WSW,239,4.0,5.8,80,0.00,,CLR,0.00,VWS V14.01,2013-02-12 20:20:00,
2013-02-12 14:25:00,41.2,35.7,30.06,West,269,0.0,6.3,80,0.00,,CLR,0.00,VWS V14.01,2013-02-12 20:25:00,
2013-02-12 14:30:00,41.2,35.7,30.06,WSW,239,0.0,4.0,80,0.00,,CLR,0.00,VWS V14.01,2013-02-12 20:30:00,
2013-02-12 14:35:00,41.2,35.7,30.06,South,181,0.0,6.3,80,0.00,,CLR,0.00,VWS V14.01,2013-02-12 20:35:00,
2013-02-12 14:40:00,41.0,35.5,30.06,WSW,254,3.1,4.9,80,0.00,,CLR,0.00,VWS V14.01,2013-02-12 20:40:00,
2013-02-12 14:45:00,41.5,36.0,30.06,SW,222,5.4,5.4,80,0.00,,CLR,0.00,VWS V14.01,2013-02-12 20:45:00,
2013-02-12 14:50:00,41.5,36.0,30.06,West,268,3.6,3.6,80,0.00,,CLR,0.00,VWS V14.01,2013-02-12 20:50:00,
2013-02-12 14:55:00,41.9,36.3,30.06,SW,228,2.7,5.8,80,0.00,,CLR,0.00,VWS V14.01,2013-02-12 20:55:00,
2013-02-12 15:00:00,41.5,36.0,30.06,South,183,0.0,2.7,80,0.00,,CLR,0.00,VWS V14.01,2013-02-12 21:00:00,
2013-02-12 15:05:00,41.5,36.0,30.06,West,263,7.6,7.6,80,0.00,,CLR,0.00,VWS V14.01,2013-02-12 21:05:00,
2013-02-12 15:10:00,41.4,35.8,30.06,West,281,2.2,2.7,80,0.00,,CLR,0.00,VWS V14.01,2013-02-12 21:10:00,
2013-02-12 15:16:00,41.7,36.2,30.06,SSW,212,4.0,4.0,80,0.00,,CLR,0.00,VWS V14.01,2013-02-12 21:16:00,
2013-02-12 15:21:00,41.7,36.2,30.06,WNW,292,3.6,5.4,80,0.00,,CLR,0.00,VWS V14.01,2013-02-12 21:21:00,
2013-02-12 15:26:00,41.5,36.0,30.06,SSW,198,4.0,4.9,80,0.00,,CLR,0.00,VWS V14.01,2013-02-12 21:26:00,
2013-02-12 15:31:00,41.0,35.5,30.03,WSW,251,0.0,0.0,80,0.00,,CLR,0.00,VWS V14.01,2013-02-12 21:31:00,
2013-02-12 15:37:00,40.6,35.1,30.03,WSW,253,4.0,4.9,80,0.00,,CLR,0.00,VWS V14.01,2013-02-12 21:37:00,
2013-02-12 15:43:00,40.3,34.8,30.03,SW,217,0.0,4.9,80,0.00,,CLR,0.00,VWS V14.01,2013-02-12 21:43:00,
2013-02-12 15:48:00,39.9,34.4,30.06,SSW,208,3.1,5.4,80,0.00,,CLR,0.00,VWS V14.01,2013-02-12 21:48:00,
2013-02-12 15:53:00,39.6,34.1,30.06,SW,219,4.0,6.3,80,0.00,,CLR,0.00,VWS V14.01,2013-02-12 21:53:00,
2013-02-12 15:59:00,39.2,33.7,30.06,South,181,4.9,6.3,80,0.00,,CLR,0.00,VWS V14.01,2013-02-12 21:59:00,
2013-02-12 16:04:00,39.0,34.6,30.03,West,268,3.6,5.8,84,0.00,,CLR,0.00,VWS V14.01,2013-02-12 22:04:00,
2013-02-12 16:09:00,39.0,34.6,30.03,WSW,239,5.4,5.8,84,0.00,,CLR,0.00,VWS V14.01,2013-02-12 22:09:00,
2013-02-12 16:14:00,38.8,34.4,30.03,WSW,237,3.1,4.0,84,0.00,,CLR,0.00,VWS V14.01,2013-02-12 22:14:00,
2013-02-12 16:19:00,38.7,34.2,30.03,SW,233,4.0,4.0,84,0.00,,CLR,0.00,VWS V14.01,2013-02-12 22:19:00,
2013-02-12 16:25:00,38.5,34.1,30.03,WSW,247,3.6,4.0,84,0.00,,CLR,0.00,VWS V14.01,2013-02-12 22:25:00,
2013-02-12 16:30:00,38.3,33.9,30.03,West,271,0.0,4.9,84,0.00,,CLR,0.00,VWS V14.01,2013-02-12 22:30:00,
2013-02-12 16:35:00,38.3,33.9,30.03,West,268,2.7,3.6,84,0.00,,CLR,0.00,VWS V14.01,2013-02-12 22:35:00,
2013-02-12 16:40:00,38.3,33.9,30.03,SW,231,4.9,5.4,84,0.00,,CLR,0.00,VWS V14.01,2013-02-12 22:40:00,
2013-02-12 16:45:00,38.1,33.7,30.03,West,275,0.0,2.2,84,0.00,,CLR,0.00,VWS V14.01,2013-02-12 22:45:00,
2013-02-12 16:50:00,37.9,33.5,30.03,WSW,247,0.0,0.0,84,0.00,,CLR,0.00,VWS V14.01,2013-02-12 22:50:00,
2013-02-12 16:56:00,37.8,33.4,30.03,WSW,249,3.6,3.6,84,0.00,,CLR,0.00,VWS V14.01,2013-02-12 22:56:00,
2013-02-12 17:01:00,37.6,33.2,30.03,SSW,209,0.0,0.0,84,0.00,,CLR,0.00,VWS V14.01,2013-02-12 23:01:00,
2013-02-12 17:06:00,37.2,32.8,30.03,WSW,238,0.0,0.0,84,0.00,,CLR,0.00,VWS V14.01,2013-02-12 23:06:00,
2013-02-12 17:11:00,36.9,32.5,30.03,WSW,238,0.0,0.0,84,0.00,,CLR,0.00,VWS V14.01,2013-02-12 23:11:00,
2013-02-12 17:17:00,36.7,32.3,30.00,West,261,0.0,0.0,84,0.00,,CLR,0.00,VWS V14.01,2013-02-12 23:17:00,
2013-02-12 17:22:00,36.5,32.1,30.00,WSW,252,0.0,0.0,84,0.00,,CLR,0.00,VWS V14.01,2013-02-12 23:22:00,
2013-02-12 17:27:00,36.3,32.0,30.00,WNW,283,0.0,0.0,84,0.00,,CLR,0.00,VWS V14.01,2013-02-12 23:27:00,
2013-02-12 17:32:00,36.0,31.6,30.03,WNW,283,0.0,0.0,84,0.00,,CLR,0.00,VWS V14.01,2013-02-12 23:32:00,
2013-02-12 17:37:00,35.8,31.4,30.03,WNW,283,0.0,0.0,84,0.00,,CLR,0.00,VWS V14.01,2013-02-12 23:37:00,
2013-02-12 17:42:00,35.4,32.1,30.03,WNW,283,0.0,0.0,88,0.00,,CLR,0.00,VWS V14.01,2013-02-12 23:42:00,
2013-02-12 17:47:00,35.1,31.7,30.00,WNW,283,0.0,0.0,88,0.00,,CLR,0.00,VWS V14.01,2013-02-12 23:47:00,
2013-02-12 17:53:00,34.7,31.4,30.00,WNW,283,0.0,0.0,88,0.00,,CLR,0.00,VWS V14.01,2013-02-12 23:53:00,
2013-02-12 17:58:00,34.3,31.0,30.00,WNW,283,0.0,0.0,88,0.00,,CLR,0.00,VWS V14.01,2013-02-12 23:58:00,
2013-02-12 18:03:00,34.2,30.8,30.00,WNW,283,0.0,0.0,88,0.00,,CLR,0.00,VWS V14.01,2013-02-13 00:03:00,
2013-02-12 18:09:00,34.0,30.7,30.00,WNW,283,0.0,0.0,88,0.00,,CLR,0.00,VWS V14.01,2013-02-13 00:09:00,
2013-02-12 18:14:00,33.8,30.5,30.00,WNW,283,0.0,0.0,88,0.00,,CLR,0.00,VWS V14.01,2013-02-13 00:14:00,
2013-02-12 18:19:00,33.6,30.3,30.00,WNW,283,0.0,0.0,88,0.00,,CLR,0.00,VWS V14.01,2013-02-13 00:19:00,
2013-02-12 18:24:00,33.4,30.1,30.00,WNW,283,0.0,0.0,88,0.00,,CLR,0.00,VWS V14.01,2013-02-13 00:24:00,
2013-02-12 18:29:00,33.3,30.0,30.00,WNW,283,0.0,0.0,88,0.00,,CLR,0.00,VWS V14.01,2013-02-13 00:29:00,
2013-02-12 18:34:00,33.1,29.8,30.00,WNW,283,0.0,0.0,88,0.00,,CLR,0.00,VWS V14.01,2013-02-13 00:34:00,
2013-02-12 18:39:00,32.9,29.6,30.00,WNW,283,0.0,0.0,88,0.00,,CLR,0.00,VWS V14.01,2013-02-13 00:39:00,
2013-02-12 18:44:00,32.5,29.2,30.00,WNW,283,0.0,0.0,88,0.00,,CLR,0.00,VWS V14.01,2013-02-13 00:44:00,
2013-02-12 18:49:00,32.5,29.2,30.00,WNW,283,0.0,0.0,88,0.00,,CLR,0.00,VWS V14.01,2013-02-13 00:49:00,
2013-02-12 18:54:00,32.5,29.2,30.00,WNW,283,0.0,0.0,88,0.00,,CLR,0.00,VWS V14.01,2013-02-13 00:54:00,
2013-02-12 18:59:00,32.5,29.2,30.00,WNW,283,0.0,0.0,88,0.00,,CLR,0.00,VWS V14.01,2013-02-13 00:59:00,
2013-02-12 19:05:00,32.5,29.2,30.00,WSW,242,0.0,0.0,88,0.00,,CLR,0.00,VWS V14.01,2013-02-13 01:05:00,
2013-02-12 19:10:00,32.5,29.2,30.00,SSW,212,0.0,0.0,88,0.00,,CLR,0.00,VWS V14.01,2013-02-13 01:10:00,
2013-02-12 19:15:00,32.7,29.4,30.00,SW,221,0.0,0.0,88,0.00,,CLR,0.00,VWS V14.01,2013-02-13 01:15:00,
2013-02-12 19:20:00,32.7,29.4,30.00,SSW,203,0.0,0.0,88,0.00,,CLR,0.00,VWS V14.01,2013-02-13 01:20:00,
2013-02-12 19:25:00,32.7,29.4,30.00,SSW,202,0.0,0.0,88,0.00,,CLR,0.00,VWS V14.01,2013-02-13 01:25:00,
2013-02-12 19:30:00,32.7,29.4,30.00,SW,220,0.0,0.0,88,0.00,,CLR,0.00,VWS V14.01,2013-02-13 01:30:00,
2013-02-12 19:35:00,32.5,29.2,30.00,SSW,195,0.0,0.0,88,0.00,,CLR,0.00,VWS V14.01,2013-02-13 01:35:00,
2013-02-12 19:40:00,32.4,29.1,30.00,SSW,198,0.0,0.0,88,0.00,,CLR,0.00,VWS V14.01,2013-02-13 01:40:00,
2013-02-12 19:45:00,32.2,28.9,30.00,SW,216,0.0,0.0,88,0.00,,CLR,0.00,VWS V14.01,2013-02-13 01:45:00,
2013-02-12 19:50:00,31.8,28.5,30.00,SW,216,0.0,0.0,88,0.00,,CLR,0.00,VWS V14.01,2013-02-13 01:50:00,
2013-02-12 19:55:00,31.5,28.2,30.00,SW,216,0.0,0.0,88,0.00,,CLR,0.00,VWS V14.01,2013-02-13 01:55:00,
2013-02-12 20:00:00,31.3,28.0,30.00,SW,216,0.0,0.0,88,0.00,,CLR,0.00,VWS V14.01,2013-02-13 02:00:00,
2013-02-12 20:05:00,31.1,27.8,30.00,SW,216,0.0,0.0,88,0.00,,CLR,0.00,VWS V14.01,2013-02-13 02:05:00,
2013-02-12 20:10:00,31.1,27.8,30.00,SSW,210,0.0,0.0,88,0.00,,CLR,0.00,VWS V14.01,2013-02-13 02:10:00,
2013-02-12 20:15:00,31.1,27.8,30.00,SSW,210,0.0,0.0,88,0.00,,CLR,0.00,VWS V14.01,2013-02-13 02:15:00,
2013-02-12 20:20:00,30.9,27.6,30.00,SSW,210,0.0,0.0,88,0.00,,CLR,0.00,VWS V14.01,2013-02-13 02:20:00,
2013-02-12 20:25:00,30.7,27.5,30.00,SSW,209,0.0,0.0,88,0.00,,CLR,0.00,VWS V14.01,2013-02-13 02:25:00,
2013-02-12 20:31:00,30.6,27.3,29.97,SSW,207,0.0,0.0,88,0.00,,CLR,0.00,VWS V14.01,2013-02-13 02:31:00,
2013-02-12 20:36:00,30.6,27.3,29.97,South,189,0.0,0.0,88,0.00,,CLR,0.00,VWS V14.01,2013-02-13 02:36:00,
2013-02-12 20:41:00,30.6,27.3,29.97,South,186,0.0,0.0,88,0.00,,CLR,0.00,VWS V14.01,2013-02-13 02:41:00,
2013-02-12 20:46:00,30.6,27.3,29.97,South,186,0.0,0.0,88,0.00,,CLR,0.00,VWS V14.01,2013-02-13 02:46:00,
2013-02-12 20:51:00,30.7,27.5,29.97,SSW,211,0.0,0.0,88,0.00,,CLR,0.00,VWS V14.01,2013-02-13 02:51:00,
2013-02-12 20:56:00,30.7,27.5,29.97,SSW,205,0.0,0.0,88,0.00,,CLR,0.00,VWS V14.01,2013-02-13 02:56:00,
2013-02-12 21:01:00,30.9,27.6,29.97,SSW,201,0.0,0.0,88,0.00,,CLR,0.00,VWS V14.01,2013-02-13 03:01:00,
2013-02-12 21:06:00,30.7,27.5,29.97,SSW,207,0.0,0.0,88,0.00,,CLR,0.00,VWS V14.01,2013-02-13 03:06:00,
2013-02-12 21:11:00,30.7,27.5,29.97,SSW,204,0.0,0.0,88,0.00,,CLR,0.00,VWS V14.01,2013-02-13 03:11:00,
2013-02-12 21:16:00,30.6,27.3,29.97,SW,230,0.0,0.0,88,0.00,,CLR,0.00,VWS V14.01,2013-02-13 03:16:00,
2013-02-12 21:21:00,30.2,26.9,29.97,SSW,211,0.0,0.0,88,0.00,,CLR,0.00,VWS V14.01,2013-02-13 03:21:00,
2013-02-12 21:26:00,30.4,27.1,29.97,SSW,205,0.0,0.0,88,0.00,,CLR,0.00,VWS V14.01,2013-02-13 03:26:00,
2013-02-12 21:31:00,30.6,27.3,29.97,SW,223,0.0,0.0,88,0.00,,CLR,0.00,VWS V14.01,2013-02-13 03:31:00,
2013-02-12 21:36:00,30.4,27.1,29.97,SSW,205,2.7,3.6,88,0.00,,CLR,0.00,VWS V14.01,2013-02-13 03:36:00,
2013-02-12 21:41:00,30.6,27.3,29.97,SSW,205,2.7,4.0,88,0.00,,CLR,0.00,VWS V14.01,2013-02-13 03:41:00,
2013-02-12 21:46:00,30.4,27.1,29.97,SSW,194,0.0,0.0,88,0.00,,CLR,0.00,VWS V14.01,2013-02-13 03:46:00,
2013-02-12 21:52:00,30.2,26.9,29.97,SSW,212,0.0,0.0,88,0.00,,CLR,0.00,VWS V14.01,2013-02-13 03:52:00,
2013-02-12 21:56:00,30.0,26.8,29.97,SSW,211,0.0,0.0,88,0.00,,CLR,0.00,VWS V14.01,2013-02-13 03:56:00,
2013-02-12 22:01:00,29.7,26.4,29.97,SSW,212,0.0,0.0,88,0.00,,CLR,0.00,VWS V14.01,2013-02-13 04:01:00,
2013-02-12 22:07:00,29.5,26.2,29.97,SSW,211,0.0,0.0,88,0.00,,CLR,0.00,VWS V14.01,2013-02-13 04:07:00,
2013-02-12 22:12:00,29.1,25.9,29.97,SSW,211,0.0,0.0,88,0.00,,CLR,0.00,VWS V14.01,2013-02-13 04:12:00,
2013-02-12 22:17:00,28.9,25.7,29.97,SSW,211,0.0,0.0,88,0.00,,CLR,0.00,VWS V14.01,2013-02-13 04:17:00,
2013-02-12 22:22:00,28.8,25.5,29.97,SSW,211,0.0,0.0,88,0.00,,CLR,0.00,VWS V14.01,2013-02-13 04:22:00,
2013-02-12 22:27:00,28.8,25.5,29.97,SSW,211,0.0,0.0,88,0.00,,CLR,0.00,VWS V14.01,2013-02-13 04:27:00,
2013-02-12 22:32:00,28.6,25.4,29.97,SSW,211,0.0,0.0,88,0.00,,CLR,0.00,VWS V14.01,2013-02-13 04:32:00,
2013-02-12 22:37:00,28.6,25.4,29.97,SSW,211,0.0,0.0,88,0.00,,CLR,0.00,VWS V14.01,2013-02-13 04:37:00,
2013-02-12 22:42:00,28.6,25.4,29.97,SSW,211,0.0,0.0,88,0.00,,CLR,0.00,VWS V14.01,2013-02-13 04:42:00,
2013-02-12 22:47:00,28.4,26.1,29.97,SSW,211,0.0,0.0,91,0.00,,CLR,0.00,VWS V14.01,2013-02-13 04:47:00,
2013-02-12 22:52:00,28.2,25.9,29.97,SSW,211,0.0,0.0,91,0.00,,CLR,0.00,VWS V14.01,2013-02-13 04:52:00,
2013-02-12 22:58:00,28.0,25.8,29.97,SSW,211,0.0,0.0,91,0.00,,CLR,0.00,VWS V14.01,2013-02-13 04:58:00,
2013-02-12 23:00:00,28.0,25.8,29.97,SSW,211,0.0,0.0,91,0.00,,CLR,0.00,VWS V14.01,2013-02-13 05:00:00,
2013-02-12 23:05:00,28.0,25.8,29.97,SSW,211,0.0,0.0,91,0.00,,CLR,0.00,VWS V14.01,2013-02-13 05:05:00,
2013-02-12 23:10:00,27.9,25.6,29.97,SSW,211,0.0,0.0,91,0.00,,CLR,0.00,VWS V14.01,2013-02-13 05:10:00,
2013-02-12 23:15:00,27.9,25.6,29.97,SSW,211,0.0,0.0,91,0.00,,CLR,0.00,VWS V14.01,2013-02-13 05:15:00,
2013-02-12 23:20:00,28.0,25.8,29.97,SSW,211,0.0,0.0,91,0.00,,CLR,0.00,VWS V14.01,2013-02-13 05:20:00,
2013-02-12 23:25:00,27.9,25.6,29.97,SSW,211,0.0,0.0,91,0.00,,CLR,0.00,VWS V14.01,2013-02-13 05:25:00,
2013-02-12 23:30:00,27.9,27.4,29.97,SSW,209,0.0,0.0,98,0.00,,CLR,0.00,VWS V14.01,2013-02-13 05:30:00,
2013-02-12 23:35:00,27.9,27.4,29.97,SSW,209,0.0,0.0,98,0.00,,CLR,0.00,VWS V14.01,2013-02-13 05:35:00,
2013-02-12 23:40:00,28.0,27.5,29.97,SSW,209,0.0,0.0,98,0.00,,CLR,0.00,VWS V14.01,2013-02-13 05:40:00,
2013-02-12 23:45:00,27.9,27.4,29.97,SSW,209,0.0,0.0,98,0.00,,,0.00,VWS V14.01,2013-02-13 05:45:00,
2013-02-12 23:50:00,27.7,27.2,29.97,SSW,209,0.0,0.0,98,0.00,,,0.00,VWS V14.01,2013-02-13 05:50:00,
2013-02-12 23:55:00,27.5,27.0,29.97,SSW,209,0.0,0.0,98,0.00,,,0.00,VWS V14.01,2013-02-13 05:55:00,